Weather History for KRDM - May, 2014

Change the Weather History Date:

Sunday, May 25, 2014

  Actual Average Record
Temperature  
Mean Temperature 59 °F 54 °F  
Max Temperature 78 °F 70 °F 92 °F (1986)
Min Temperature 40 °F 38 °F 20 °F (1975)
Degree Days  
Heating Degree Days 6 12  
Month to date heating degree days 295 362  
Since 1 July heating degree days 6390 6433  
Cooling Degree Days 0 0  
Month to date cooling degree days 0 0  
Year to date cooling degree days 0 0  
Growing Degree Days 8 (Base 50)    
Moisture  
Dew Point 37 °F    
Average Humidity 54    
Maximum Humidity 86    
Minimum Humidity 21    
Precipitation  
Precipitation 0.00 in 0.04 in 0.59 in (1993)
Month to date precipitation 0.36 0.80  
Year to date precipitation 3.45 3.81  
Sea Level Pressure  
Sea Level Pressure 30.00 in    
Wind  
Wind Speed 8 mph (West)    
Max Wind Speed 26 mph    
Max Gust Speed 32 mph    
Visibility 10 miles    
Events      
T = Trace of Precipitation, MM = Missing Value Source: NWS Daily Summary

Daily Weather History Graph

Daily Weather History Graph

Search for Another Location

Airport or City:

Trip Planner

Search our weather history database for the weather conditions in past years. The results will help you decide how hot, cold, wet, or windy it might be!

Date:

Astronomy

May. 25, 2014 Rise Set
Actual Time 5:28 AM PDT 8:35 PM PDT
Civil Twilight 4:53 AM PDT 9:10 PM PDT
Nautical Twilight 4:08 AM PDT 9:55 PM PDT
Astronomical Twilight 3:14 AM PDT 10:49 PM PDT
Moon 3:43 AM PDT (5/25) 5:35 PM PDT (5/25)
Length of Visible Light 16h 16m
Length of Day
15h 06m
Waning Crescent, 10% of the Moon is Illuminated
May 25
Waning Crescent
May 28
New
Jun 5
First Quarter
Jun 12
Full
Jun 19
Last Quarter

Hourly Weather History & Observations

Time (PDT) Temp. Windchill Dew Point Humidity Pressure Visibility Wind Dir Wind Speed Gust Speed Precip Events Conditions
12:56 AM 48.0 °F - 39.0 °F 71% 30.07 in 10.0 mi South 3.5 mph - N/A   Clear
1:56 AM 45.0 °F - 37.9 °F 76% 30.07 in 10.0 mi Calm Calm - N/A   Clear
2:56 AM 41.0 °F 39.0 °F 37.0 °F 86% 30.07 in 10.0 mi SSE 3.5 mph - N/A   Clear
3:56 AM 42.1 °F 39.2 °F 36.0 °F 79% 30.06 in 10.0 mi South 4.6 mph - N/A   Clear
4:56 AM 41.0 °F - 36.0 °F 82% 30.05 in 10.0 mi Calm Calm - N/A   Clear
5:56 AM 41.0 °F 39.0 °F 36.0 °F 82% 30.05 in 10.0 mi South 3.5 mph - N/A   Clear
6:56 AM 46.0 °F 44.8 °F 37.9 °F 73% 30.05 in 10.0 mi SSE 3.5 mph - N/A   Clear
8:56 AM 57.0 °F - 39.9 °F 53% 30.04 in 10.0 mi Calm Calm - N/A   Clear
9:56 AM 61.0 °F - 37.9 °F 42% 30.03 in 10.0 mi Variable 4.6 mph - N/A   Clear
10:56 AM 64.0 °F - 32.0 °F 30% 30.01 in 10.0 mi Calm Calm - N/A   Clear
11:56 AM 68.0 °F - 30.9 °F 25% 30.00 in 10.0 mi Variable 3.5 mph - N/A   Clear
12:56 PM 72.0 °F - 30.9 °F 22% 29.97 in 10.0 mi WNW 10.4 mph - N/A   Clear
1:56 PM 73.0 °F - 32.0 °F 22% 29.95 in 10.0 mi North - - N/A   Clear
2:56 PM 75.0 °F - 33.1 °F 22% 29.94 in 10.0 mi NNW 5.8 mph - N/A   Clear
3:56 PM 75.9 °F - 37.0 °F 24% 29.92 in 10.0 mi North 8.1 mph - N/A   Clear
4:56 PM 75.0 °F - 37.9 °F 26% 29.91 in 10.0 mi WNW 17.3 mph 23.0 mph N/A   Clear
5:56 PM 72.0 °F - 41.0 °F 33% 29.92 in 10.0 mi NW 16.1 mph - N/A   Scattered Clouds
6:56 PM 71.1 °F - 39.9 °F 32% 29.92 in 10.0 mi West 24.2 mph 31.1 mph N/A   Clear
8:56 PM 63.0 °F - 41.0 °F 45% 29.97 in 10.0 mi WNW 15.0 mph - N/A   Overcast
9:56 PM 60.1 °F - 39.9 °F 47% 29.99 in 10.0 mi West 16.1 mph - N/A   Partly Cloudy
10:56 PM 57.9 °F - 39.9 °F 51% 30.00 in 10.0 mi WNW 10.4 mph - N/A   Clear
11:56 PM 57.0 °F - 39.9 °F 53% 29.99 in 10.0 mi West 5.8 mph - N/A   Clear